Regional Weather Roundup
Issued by NWS Newport/Morehead, NC

Current Version | Previous Version | Text Only | Print | Product List | Glossary Off
Versions: 1 2 3 4 5 6 7 8 9 10 11 12 13 14 15 16 17 18 19 20 21 22 23 24 25 26 27 28 29 30 31 32 33 34 35 36 37 38 39 40 41 42 43 44 45 46 47 48 49 50
671 ASUS42 KMHX 011425 RWRMHX WEATHER ROUNDUP FOR EASTERN NORTH CAROLINA NATIONAL WEATHER SERVICE NEWPORT/MOREHEAD CITY NC 1000 AM EDT SAT OCT 01 2016 NOTE: "FAIR" INDICATES FEW OR NO CLOUDS BELOW 12,000 FEET WITH NO SIGNIFICANT WEATHER AND/OR OBSTRUCTIONS TO VISIBILITY NCZ015>017-031-032-045>047-102-103-011500- NORTH COAST CITY SKY/WX TMP DP RH WIND PRES REMARKS EDENTON CLOUDY 78 76 94 SW8 30.09R ELIZABETH CITY PTSUNNY 77 72 84 SW8 30.08R KITTY HAWK PTSUNNY 75 75 100 CALM 30.06F MANTEO CLOUDY 76 75 95 S9 30.08S $$ NCZ045>047-081-094-103-104-011500- CENTRAL COAST CITY SKY/WX TMP DP RH WIND PRES REMARKS FRISCO CLOUDY 76 73 91 W5 30.09S $$ NCZ095-097-098-100-101-011500- SOUTHERN COAST CITY SKY/WX TMP DP RH WIND PRES REMARKS BEAUFORT CLOUDY 80 74 81 S12 30.09R CEDAR ISLAND NOT AVBL JACKSONVILLE CLOUDY 75 70 84 W5 30.08R PINEY ISLAND CLOUDY N/A N/A N/A S7 30.08S WILMINGTON CLOUDY 73 68 84 CALM 30.09R $$ NCZ011>013-027>030-043-044-078>080-089-090>093-098-011500- COASTAL PLAIN CITY SKY/WX TMP DP RH WIND PRES REMARKS AHOSKIE CLOUDY 73 72 94 CALM 30.07F CLINTON MOSUNNY 69 69 100 CALM 30.10R ELIZABETHTOWN PTSUNNY 72 66 83 SE3 30.09S GOLDSBORO CLOUDY 70 70 100 SW2 30.07S GREENVILLE CLOUDY 73 72 94 SW3 30.09S HAVELOCK CLOUDY 77 74 90 CALM 30.09R KENANSVILLE CLOUDY 70 70 100 CALM 30.09S FOG KINSTON PTSUNNY 72 72 100 CALM 30.09S NEW BERN CLOUDY 76 73 91 CALM 30.10R RICHLANDS CLOUDY 73 70 90 CALM 30.09S ROCKY MOUNT CLOUDY 71 71 100 S6 30.08R WASHINGTON CLOUDY 74 71 90 SW3 30.08S WHITEVILLE NOT AVBL $$ AMZ130-135-150-152-154-156-158-170-250-252-270-ANZ085-086-088-633-658-670-011500- MARINE OBSERVATIONS STATION/POSITION TIME TEMP WIND PRES WAVE SWELL AIR SEA DIR/SP/G HT/PER HT/PER (UTC) (F) (DEG/KT/KT) (MB) (FT/S) (FT/S) CHESAPEAKE LIGHT NOT AVBL 64 E VA BEACH 1350 74 74 170/ 12/ 16 1018.6 6/10 5/10 DUCK 1400 77 76 170/ 3/ 7 1017.7 2 E DUCK 1341 76 N/A 4/11 2/11 OREGON INLET 1400 78 78 200/ 13/ 15 1018.5 13E OREGON INLT 1400 76 N/A 6/11 7/11 HATTERAS CG 1400 75 79 230/ 6/ 9 1018.7 DIAMOND BUOY 1350 79 82 180/ 17/ 21 1017.9 5/11 3/11 CAPE LOOKOUT 1400 79 200/ 9/ 12 1018.4 BEAUFORT LAB 1400 79 76 200/ 12/ 16 1018.2 30 SE NEW RVR IN 1408 80 82 190/ 14/ 17 1018.6 30 SE NEW RVR IN 1355 82 N/A 4/ 6 2/11 27 SE WRIGHTSVLE 1408 79 81 200/ 12/ 14 1019.0 5 SE WRIGHTSVLE 1408 78 80 270/ 4/ 8 1020.1 225 S CAPE HAT 1350 78 83 110/ 8/ 10 1019.8 6/11 7/11 41 SE CHARLESTON 1350 78 82 70/ 16/ 19 1016.8 3/10 2/10 $$

USA.gov is the U.S. government's official web portal to all federal, state and local government web resources and services.